QPF
0.00 0.00 0.00 0.00 0.00 0.00 0.00 0.00 0.00 0.00 0.00 0.00 0.00 0.00 0.00 0.00 0.00 0.00 0.00 0.00 0.00 0.00 0.00 0.00 0.00 0.00 0.00 0.00 0.00 0.00 0.00 0.00 0.00 0.00 0.00 0.00 0.00 0.00 0.00 0.00 0.00 0.00 0.00
0.00 0.00 0.00 0.00 0.00 0.00 0.00 0.00 0.00 0.00 0.00 0.00 0.00 0.00 0.00 0.00 0.00 0.00 0.00 0.00 0.00 0.00 0.00 0.00 0.00 0.00 0.00 0.00 0.00 0.00 0.00 0.00 0.00 0.00 0.00 0.00 0.00 0.00 0.00 0.00 0.00 0.00 0.00
0.00 0.00 0.00 0.00 0.00 0.00 0.00 0.00 0.00 0.00 0.00 0.00 0.00 0.00 0.00 0.00 0.00 0.00 0.00 0.00 0.00 0.00 0.00 0.00 0.00 0.00 0.00 0.00 0.00 0.00 0.00 0.00 0.00 0.00 0.00 0.00 0.00 0.00 0.00 0.00 0.00 0.00 0.00
0.00 0.00 0.00 0.00 0.00 0.00 0.00 0.00 0.00 0.00 0.00 0.00 0.00 0.00 0.00 0.00 0.00 0.00 0.00 0.00 0.00 0.00 0.00 0.00 0.00 0.00 0.00 0.00 0.00 0.00 0.00 0.00 0.00 0.00 0.00 0.00 0.00 0.00 0.00 0.00 0.00 0.00 0.00
0.00 0.00 0.00 0.00 0.00 0.00 0.00 0.00 0.00 0.00 0.00 0.00 0.00 0.00 0.00 0.00 0.00 0.00 0.00 0.00 0.00 0.00 0.00 0.00 0.00 0.00 0.00 0.00 0.00 0.00 0.00 0.00 0.00 0.00 0.00 0.00 0.00 0.00 0.00 0.00 0.00 0.00 0.00
0.00 0.00 0.00 0.00 0.00 0.00 0.00 0.00 0.00 0.00 0.00 0.00 0.00 0.00 0.00 0.00 0.00 0.00 0.00 0.01 0.01 0.00 0.00 0.00 0.00 0.00 0.00 0.00 0.00 0.00 0.00 0.00 0.00 0.00 0.00 0.00 0.00 0.00 0.00 0.00 0.00 0.00 0.00
0.00 0.00 0.00 0.00 0.00 0.00 0.00 0.00 0.00 0.00 0.00 0.00 0.00 0.00 0.00 0.00 0.00 0.00 0.00 0.02 0.01 0.00 0.00 0.00 0.00 0.00 0.00 0.00 0.00 0.00 0.00 0.00 0.00 0.00 0.00 0.00 0.00 0.00 0.00 0.00 0.00 0.00 0.00
0.00 0.00 0.00 0.00 0.00 0.00 0.00 0.00 0.00 0.00 0.00 0.00 0.00 0.00 0.00 0.00 0.00 0.00 0.00 0.00 0.00 0.00 0.00 0.00 0.00 0.00 0.00 0.00 0.00 0.00 0.00 0.00 0.01 0.02 0.01 0.01 0.00 0.00 0.00 0.00 0.00 0.00 0.00
0.00 0.00 0.00 0.00 0.00 0.00 0.00 0.00 0.00 0.00 0.00 0.00 0.00 0.00 0.00 0.00 0.00 0.00 0.00 0.00 0.00 0.00 0.00 0.00 0.00 0.00 0.00 0.00 0.00 0.00 0.00 0.00 0.00 0.01 0.03 0.04 0.01 0.00 0.00 0.00 0.00 0.00 0.00
0.00 0.00 0.00 0.00 0.00 0.00 0.00 0.00 0.00 0.00 0.00 0.00 0.00 0.00 0.00 0.00 0.00 0.00 0.00 0.00 0.00 0.00 0.00 0.00 0.00 0.00 0.00 0.00 0.00 0.00 0.00 0.00 0.00 0.01 0.02 0.11 0.21 0.17 0.09 0.05 0.04 0.03 0.01
0.00 0.00 0.00 0.00 0.00 0.00 0.00 0.00 0.00 0.00 0.00 0.00 0.00 0.00 0.00 0.00 0.00 0.00 0.01 0.00 0.00 0.00 0.00 0.00 0.00 0.00 0.00 0.00 0.00 0.00 0.00 0.00 0.00 0.04 0.09 0.12 0.21 0.28 0.26 0.21 0.17 0.10 0.07
0.00 0.00 0.00 0.00 0.00 0.00 0.00 0.00 0.00 0.00 0.00 0.00 0.00 0.00 0.00 0.00 0.00 0.00 0.00 0.00 0.00 0.00 0.00 0.00 0.00 0.00 0.00 0.00 0.00 0.00 0.00 0.00 0.00 0.02 0.08 0.17 0.20 0.14 0.14 0.25 0.29 0.24 0.18
0.00 0.00 0.00 0.00 0.00 0.00 0.00 0.00 0.00 0.00 0.00 0.01 0.01 0.01 0.01 0.01 0.01 0.00 0.00 0.00 0.00 0.00 0.00 0.00 0.00 0.00 0.00 0.00 0.00 0.00 0.00 0.00 0.00 0.01 0.05 0.11 0.13 0.12 0.13 0.19 0.31 0.29 0.26
0.00 0.00 0.00 0.00 0.00 0.00 0.00 0.00 0.00 0.00 0.01 0.01 0.02 0.02 0.01 0.00 0.00 0.00 0.00 0.00 0.00 0.00 0.00 0.00 0.00 0.00 0.00 0.00 0.00 0.00 0.00 0.00 0.00 0.01 0.04 0.10 0.14 0.19 0.15 0.15 0.25 0.27 0.17
0.00 0.00 0.00 0.00 0.00 0.00 0.00 0.00 0.00 0.00 0.00 0.01 0.01 0.00 0.00 0.00 0.00 0.00 0.00 0.00 0.00 0.00 0.00 0.00 0.00 0.00 0.00 0.00 0.00 0.00 0.00 0.00 0.00 0.00 0.01 0.05 0.12 0.21 0.20 0.18 0.17 0.15 0.12
0.00 0.00 0.00 0.00 0.00 0.00 0.00 0.00 0.00 0.00 0.00 0.00 0.00 0.00 0.00 0.00 0.00 0.00 0.00 0.00 0.00 0.00 0.00 0.00 0.00 0.00 0.00 0.00 0.00 0.00 0.00 0.00 0.00 0.00 0.02 0.07 0.11 0.08 0.16 0.17 0.16 0.14 0.10
0.00 0.00 0.00 0.00 0.00 0.00 0.00 0.00 0.00 0.00 0.00 0.00 0.00 0.00 0.00 0.00 0.00 0.00 0.00 0.00 0.00 0.00 0.00 0.00 0.00 0.00 0.00 0.00 0.00 0.00 0.00 0.00 0.00 0.02 0.07 0.11 0.09 0.06 0.05 0.05 0.06 0.06 0.06
0.00 0.00 0.00 0.00 0.00 0.00 0.00 0.00 0.00 0.00 0.00 0.00 0.00 0.00 0.00 0.00 0.00 0.00 0.00 0.00 0.00 0.00 0.00 0.00 0.00 0.00 0.00 0.00 0.00 0.00 0.00 0.00 0.00 0.01 0.03 0.03 0.02 0.01 0.02 0.02 0.03 0.03 0.04
0.00 0.00 0.00 0.00 0.00 0.00 0.00 0.00 0.00 0.00 0.00 0.00 0.00 0.00 0.00 0.00 0.00 0.00 0.00 0.00 0.00 0.00 0.00 0.00 0.00 0.00 0.00 0.00 0.00 0.00 0.00 0.00 0.00 0.00 0.00 0.00 0.00 0.01 0.02 0.03 0.04 0.03 0.04
0.00 0.00 0.00 0.00 0.00 0.00 0.00 0.00 0.00 0.00 0.00 0.00 0.00 0.00 0.00 0.00 0.00 0.00 0.00 0.00 0.00 0.00 0.00 0.00 0.00 0.00 0.00 0.00 0.00 0.00 0.00 0.00 0.00 0.00 0.00 0.00 0.00 0.00 0.00 0.01 0.01 0.00 0.00
0.00 0.00 0.00 0.00 0.00 0.00 0.00 0.00 0.00 0.00 0.00 0.00 0.00 0.00 0.00 0.00 0.00 0.00 0.00 0.00 0.00 0.00 0.00 0.00 0.00 0.00 0.00 0.00 0.00 0.00 0.00 0.00 0.00 0.00 0.00 0.00 0.00 0.00 0.00 0.00 0.00 0.00 0.00
0.00 0.00 0.00 0.00 0.00 0.00 0.00 0.00 0.00 0.00 0.00 0.00 0.00 0.00 0.00 0.00 0.00 0.00 0.00 0.00 0.00 0.00 0.00 0.00 0.00 0.00 0.00 0.00 0.00 0.00 0.00 0.00 0.00 0.00 0.00 0.00 0.00 0.00 0.00 0.00 0.00 0.00 0.00
0.00 0.00 0.00 0.00 0.00 0.00 0.00 0.00 0.00 0.00 0.00 0.00 0.00 0.00 0.00 0.00 0.00 0.00 0.00 0.00 0.00 0.00 0.00 0.00 0.00 0.00 0.00 0.00 0.00 0.00 0.00 0.00 0.00 0.00 0.00 0.00 0.00 0.00 0.00 0.00 0.00 0.00 0.00
0.00 0.00 0.00 0.00 0.00 0.00 0.00 0.00 0.00 0.00 0.00 0.00 0.00 0.00 0.00 0.00 0.00 0.00 0.00 0.00 0.00 0.00 0.00 0.00 0.00 0.00 0.00 0.00 0.00 0.00 0.00 0.00 0.00 0.00 0.00 0.00 0.00 0.00 0.00 0.00 0.00 0.00 0.00
0.00 0.00 0.00 0.00 0.00 0.00 0.00 0.00 0.00 0.00 0.00 0.00 0.00 0.00 0.00 0.00 0.00 0.00 0.00 0.00 0.00 0.00 0.00 0.00 0.00 0.00 0.00 0.00 0.00 0.00 0.00 0.00 0.00 0.00 0.00 0.00 0.00 0.00 0.00 0.00 0.00 0.00 0.00
0.00 0.00 0.00 0.00 0.00 0.00 0.00 0.00 0.00 0.00 0.00 0.00 0.00 0.00 0.00 0.00 0.00 0.00 0.00 0.00 0.00 0.00 0.00 0.00 0.00 0.00 0.00 0.00 0.00 0.00 0.00 0.00 0.00 0.00 0.00 0.00 0.00 0.00 0.00 0.00 0.00 0.00 0.00
MSLP
1021.90 1022.06 1022.21 1022.43 1022.58 1022.69 1022.75 1022.79 1022.96 1023.05 1023.10 1023.27 1023.37 1023.44 1023.35 1023.25 1023.15 1023.19 1023.16 1023.15 1023.03 1022.94 1022.81 1022.85 1023.04 1023.27 1023.45 1023.57 1023.68 1023.76 1023.90 1024.03 1024.12 1024.25 1024.34 1024.36 1024.34 1024.29 1024.10 1023.97 1023.99 1024.04 1024.10
1021.67 1021.86 1022.00 1022.19 1022.38 1022.47 1022.53 1022.61 1022.69 1022.80 1022.85 1022.93 1022.84 1022.93 1022.97 1022.99 1022.88 1022.96 1022.93 1022.77 1022.86 1022.81 1022.70 1022.65 1022.75 1022.97 1023.15 1023.29 1023.48 1023.64 1023.72 1024.00 1024.09 1024.22 1024.36 1024.41 1024.42 1024.52 1024.55 1024.43 1024.34 1024.27 1024.23
1021.38 1021.53 1021.76 1021.93 1021.99 1022.19 1022.35 1022.50 1022.51 1022.64 1022.64 1022.63 1022.45 1022.40 1022.54 1022.48 1022.51 1022.60 1022.67 1022.61 1022.47 1022.56 1022.51 1022.45 1022.40 1022.56 1022.76 1022.86 1023.11 1023.33 1023.57 1023.74 1023.97 1024.09 1024.25 1024.34 1024.47 1024.36 1024.56 1024.70 1024.61 1024.56 1024.51
1021.09 1021.29 1021.41 1021.50 1021.59 1021.88 1022.02 1022.09 1022.02 1022.16 1022.28 1022.28 1022.07 1021.86 1021.94 1022.03 1022.00 1022.09 1022.23 1022.24 1022.16 1022.06 1022.04 1022.17 1022.12 1022.16 1022.34 1022.54 1022.60 1022.87 1023.13 1023.47 1023.77 1024.01 1024.15 1024.24 1024.31 1024.47 1024.44 1024.64 1024.73 1024.76 1024.77
1020.70 1020.85 1020.93 1020.95 1021.22 1021.37 1021.47 1021.52 1021.65 1021.80 1021.72 1021.69 1021.67 1021.53 1021.51 1021.53 1021.46 1021.55 1021.45 1021.63 1021.63 1021.69 1021.57 1021.60 1021.80 1021.88 1022.04 1022.15 1022.24 1022.32 1022.65 1022.95 1023.30 1023.62 1023.93 1024.13 1024.36 1024.39 1024.38 1024.48 1024.62 1024.72 1024.75
1020.18 1020.41 1020.49 1020.62 1020.80 1020.88 1020.90 1021.08 1021.28 1021.41 1021.43 1021.37 1021.52 1021.31 1021.06 1020.87 1020.93 1020.91 1020.72 1021.02 1021.22 1021.35 1021.40 1021.43 1021.42 1021.47 1021.78 1021.84 1021.86 1021.91 1021.98 1022.26 1022.73 1023.09 1023.51 1023.82 1023.99 1024.26 1024.35 1024.34 1024.43 1024.57 1024.64
1019.71 1019.95 1020.03 1020.15 1020.34 1020.40 1020.32 1020.59 1020.91 1021.02 1021.00 1021.23 1021.47 1020.70 1020.40 1020.34 1020.33 1020.25 1020.20 1020.55 1020.69 1020.96 1021.09 1021.18 1021.26 1021.27 1021.30 1021.57 1021.58 1021.60 1021.65 1021.65 1021.86 1022.43 1022.81 1023.26 1023.67 1023.91 1024.08 1024.20 1024.25 1024.35 1024.44
1019.39 1019.58 1019.69 1019.69 1019.80 1019.91 1019.98 1020.15 1020.43 1020.58 1020.69 1020.80 1020.79 1021.00 1020.37 1019.98 1019.98 1019.90 1020.04 1020.24 1020.29 1020.54 1020.58 1020.71 1020.83 1020.93 1020.95 1020.93 1020.96 1021.19 1021.29 1021.32 1021.34 1021.50 1022.05 1022.42 1022.78 1023.27 1023.69 1023.87 1024.14 1024.15 1024.16
1019.14 1019.15 1019.15 1019.23 1019.33 1019.53 1019.59 1019.71 1019.91 1020.12 1020.11 1020.39 1020.56 1020.54 1020.59 1020.20 1020.19 1019.93 1019.96 1020.17 1020.17 1020.16 1020.13 1020.35 1020.41 1020.38 1020.45 1020.55 1020.75 1020.83 1020.98 1021.10 1021.13 1021.13 1021.22 1021.94 1022.00 1022.37 1022.76 1023.38 1023.57 1023.96 1024.02
1019.26 1019.21 1019.15 1019.15 1019.05 1019.12 1019.27 1019.31 1019.42 1019.54 1019.71 1019.80 1020.31 1020.40 1020.37 1020.53 1020.58 1020.33 1020.16 1019.99 1020.21 1020.13 1020.26 1020.37 1020.36 1020.28 1020.33 1020.43 1020.59 1020.63 1020.66 1020.81 1020.78 1020.76 1020.82 1021.11 1021.95 1022.18 1022.51 1022.91 1023.44 1023.37 1023.28
1019.52 1019.51 1019.46 1019.40 1019.26 1019.20 1019.11 1019.11 1019.11 1019.19 1019.20 1019.21 1019.40 1019.65 1019.99 1020.36 1020.65 1020.70 1020.42 1020.16 1020.09 1019.97 1020.10 1019.93 1019.85 1020.09 1020.21 1020.20 1020.22 1020.38 1020.50 1020.48 1020.40 1020.34 1020.37 1020.66 1021.29 1021.85 1022.12 1022.63 1022.93 1023.36 1023.24
1019.70 1019.73 1019.69 1019.58 1019.39 1019.05 1018.89 1018.76 1018.73 1018.76 1018.86 1018.85 1018.73 1018.90 1019.19 1019.54 1019.85 1020.29 1020.41 1020.39 1020.37 1020.12 1019.97 1019.78 1020.05 1020.22 1020.22 1020.36 1020.53 1020.58 1020.52 1020.43 1020.21 1020.02 1019.88 1020.02 1020.53 1021.03 1021.24 1021.63 1021.97 1022.24 1022.89
1019.69 1019.74 1019.70 1019.61 1019.46 1019.32 1018.98 1018.58 1018.44 1018.37 1018.35 1018.44 1018.48 1018.54 1018.77 1019.00 1019.21 1019.55 1019.89 1020.00 1020.34 1020.43 1020.20 1020.21 1020.48 1020.73 1020.85 1020.79 1020.81 1020.88 1020.74 1020.62 1020.45 1020.27 1019.91 1019.64 1019.90 1020.47 1020.81 1021.20 1021.48 1021.43 1022.03
1019.99 1019.97 1019.84 1019.66 1019.47 1019.25 1018.92 1018.45 1018.33 1018.25 1018.17 1018.16 1018.27 1018.37 1018.50 1018.83 1019.18 1019.48 1019.54 1019.80 1020.30 1020.54 1020.69 1020.45 1021.25 1020.97 1021.00 1020.92 1021.00 1020.87 1020.68 1020.79 1020.56 1020.32 1019.98 1019.68 1019.62 1019.79 1020.29 1020.95 1021.39 1021.71 1021.87
1020.11 1020.12 1020.07 1019.83 1019.66 1019.42 1019.10 1018.56 1018.61 1018.60 1018.57 1018.59 1018.61 1018.46 1018.69 1019.03 1019.27 1019.49 1019.68 1019.84 1020.00 1020.36 1020.68 1020.77 1021.09 1021.31 1021.47 1021.34 1021.25 1021.08 1020.99 1021.02 1020.90 1020.68 1020.35 1020.09 1019.95 1020.16 1020.18 1020.66 1021.34 1022.10 1022.60
1020.43 1020.35 1020.30 1020.13 1020.01 1019.81 1019.49 1019.12 1019.14 1019.13 1019.18 1019.30 1019.29 1019.28 1019.52 1019.72 1019.86 1020.03 1020.21 1020.21 1020.27 1020.50 1020.87 1021.07 1021.47 1021.87 1021.80 1021.62 1021.59 1021.40 1021.29 1021.14 1021.04 1020.78 1020.22 1020.03 1019.82 1019.85 1020.54 1021.55 1021.76 1022.28 1022.50
1020.64 1020.58 1020.67 1020.54 1020.44 1020.21 1020.04 1019.91 1019.86 1019.82 1019.83 1019.95 1019.99 1019.96 1020.09 1020.25 1020.53 1020.65 1020.67 1020.71 1020.81 1020.98 1021.09 1021.51 1021.94 1022.15 1021.99 1022.01 1021.84 1021.75 1021.60 1021.55 1021.44 1021.02 1020.68 1020.37 1020.54 1020.74 1021.07 1021.61 1021.79 1022.43 1022.48
1020.99 1020.99 1020.99 1020.94 1020.90 1020.82 1020.76 1020.65 1020.64 1020.76 1020.77 1020.82 1020.81 1020.80 1020.82 1020.98 1021.17 1021.27 1021.18 1021.26 1021.39 1021.54 1021.55 1021.74 1022.15 1022.21 1022.39 1022.45 1022.42 1022.03 1021.94 1021.92 1021.76 1021.65 1021.59 1021.40 1021.31 1021.43 1021.58 1021.69 1022.13 1022.37 1022.67
1021.31 1021.32 1021.44 1021.36 1021.39 1021.38 1021.30 1021.26 1021.37 1021.45 1021.68 1021.92 1021.80 1021.57 1021.73 1021.71 1021.82 1021.89 1021.83 1021.88 1021.89 1021.95 1022.01 1021.99 1022.23 1022.47 1022.60 1022.81 1022.61 1022.38 1022.40 1022.20 1022.09 1022.04 1021.90 1021.73 1021.55 1021.59 1021.72 1021.88 1022.07 1022.16 1022.39
1021.38 1021.52 1021.63 1021.85 1022.05 1021.98 1021.91 1021.82 1021.80 1022.02 1022.18 1022.40 1022.45 1022.43 1022.35 1022.29 1022.30 1022.32 1022.36 1022.43 1022.45 1022.28 1022.36 1022.26 1022.38 1022.58 1022.80 1023.06 1022.84 1022.58 1022.44 1022.56 1022.59 1022.50 1022.39 1022.18 1021.99 1022.00 1021.97 1022.10 1022.22 1022.36 1022.49
1021.51 1021.63 1021.73 1021.84 1022.06 1022.33 1022.40 1022.18 1022.03 1022.28 1022.64 1022.85 1023.08 1023.05 1022.98 1022.66 1022.57 1022.60 1022.66 1022.81 1022.74 1022.68 1022.58 1022.49 1022.54 1022.60 1022.76 1022.86 1022.95 1022.89 1022.72 1022.74 1022.87 1023.13 1022.83 1022.51 1022.43 1022.40 1022.38 1022.47 1022.53 1022.56 1022.52
1021.78 1021.80 1022.14 1022.05 1022.48 1022.27 1022.26 1022.35 1022.29 1022.71 1023.03 1023.40 1023.59 1023.67 1023.66 1023.59 1023.40 1023.05 1023.09 1022.86 1022.91 1022.95 1023.02 1022.97 1022.97 1022.87 1023.09 1023.27 1023.27 1023.20 1023.16 1023.00 1022.96 1023.53 1023.17 1022.51 1022.54 1022.25 1022.24 1022.23 1022.26 1022.19 1022.08
1022.19 1022.18 1022.38 1022.54 1022.68 1022.50 1022.55 1022.85 1023.05 1023.34 1023.72 1023.99 1024.11 1024.23 1024.17 1024.22 1024.14 1024.08 1023.74 1023.72 1023.54 1023.21 1023.16 1023.32 1023.18 1023.27 1023.34 1023.51 1023.65 1023.64 1023.55 1023.52 1023.43 1023.39 1023.40 1022.69 1022.76 1022.44 1022.32 1022.25 1022.23 1022.07 1021.85
1022.45 1022.59 1022.88 1022.94 1022.96 1022.76 1022.94 1023.39 1023.92 1024.34 1024.45 1024.49 1024.55 1024.50 1024.30 1024.17 1024.05 1024.17 1024.04 1023.97 1023.93 1023.75 1023.67 1023.65 1023.57 1023.57 1023.57 1023.66 1023.76 1023.82 1023.76 1023.74 1023.60 1023.46 1023.60 1023.01 1022.90 1022.40 1022.21 1022.16 1022.20 1021.83 1021.57
1022.93 1023.13 1023.39 1023.51 1023.28 1023.01 1023.31 1023.82 1024.11 1024.41 1024.65 1024.79 1024.78 1024.64 1024.33 1023.97 1023.78 1024.07 1024.09 1024.05 1024.02 1024.01 1023.95 1023.85 1023.79 1023.71 1023.67 1023.67 1023.50 1023.71 1023.73 1023.77 1023.50 1023.50 1023.79 1023.57 1023.02 1022.61 1022.27 1022.10 1022.02 1021.89 1021.63
1023.11 1023.46 1023.85 1023.55 1023.37 1023.57 1023.47 1023.75 1023.98 1024.18 1024.40 1024.52 1024.76 1024.73 1024.41 1024.10 1023.93 1023.92 1024.19 1024.09 1023.95 1023.97 1023.99 1023.95 1023.85 1023.90 1023.96 1023.91 1023.86 1023.86 1023.94 1023.96 1023.96 1023.76 1023.90 1023.86 1023.38 1023.19 1022.39 1022.08 1021.89 1021.72 1021.59
Thickness
5694 5693 5691 5689 5687 5686 5684 5682 5680 5677 5675 5672 5670 5668 5665 5663 5662 5659 5658 5657 5655 5653 5650 5648 5644 5640 5637 5634 5631 5629 5626 5624 5621 5619 5616 5615 5614 5613 5613 5613 5611 5610 5609
5691 5690 5688 5686 5684 5683 5681 5679 5677 5675 5672 5671 5668 5665 5663 5661 5659 5656 5655 5653 5651 5648 5646 5643 5640 5636 5633 5629 5626 5623 5621 5617 5615 5612 5610 5608 5608 5605 5604 5604 5604 5604 5604
5689 5688 5686 5683 5682 5680 5678 5675 5674 5671 5669 5668 5666 5664 5661 5659 5656 5653 5650 5648 5646 5643 5641 5638 5636 5632 5628 5625 5621 5618 5615 5612 5608 5605 5603 5601 5598 5599 5596 5594 5595 5595 5595
5687 5685 5683 5681 5680 5677 5675 5673 5671 5670 5667 5665 5664 5662 5659 5656 5654 5651 5647 5643 5641 5639 5637 5633 5630 5627 5623 5619 5617 5613 5609 5606 5601 5598 5595 5594 5593 5590 5590 5587 5586 5586 5586
5684 5682 5681 5679 5677 5675 5673 5671 5669 5667 5666 5664 5661 5659 5656 5653 5651 5649 5645 5640 5637 5634 5631 5629 5625 5621 5617 5614 5611 5609 5604 5600 5596 5592 5588 5585 5583 5582 5582 5582 5580 5579 5579
5680 5679 5678 5676 5674 5673 5672 5670 5667 5663 5662 5659 5655 5655 5654 5651 5649 5646 5643 5637 5632 5628 5625 5622 5619 5616 5612 5609 5606 5603 5600 5597 5591 5586 5582 5578 5576 5573 5572 5572 5572 5571 5572
5678 5676 5675 5674 5671 5671 5671 5667 5663 5660 5658 5653 5649 5654 5654 5650 5647 5643 5639 5634 5629 5623 5620 5616 5612 5609 5606 5602 5599 5596 5593 5591 5588 5582 5577 5572 5568 5566 5564 5562 5563 5563 5562
5673 5672 5671 5671 5669 5668 5666 5663 5660 5656 5653 5649 5647 5641 5645 5648 5642 5638 5633 5628 5624 5619 5615 5611 5607 5603 5600 5598 5595 5590 5586 5583 5580 5577 5573 5569 5563 5559 5555 5554 5552 5552 5553
5668 5668 5667 5666 5665 5663 5662 5660 5655 5651 5649 5645 5640 5638 5631 5636 5632 5631 5626 5620 5616 5613 5610 5605 5602 5599 5595 5592 5588 5584 5579 5574 5571 5568 5565 5557 5558 5553 5548 5545 5545 5540 5540
5661 5661 5661 5660 5660 5658 5656 5654 5651 5648 5644 5642 5634 5630 5627 5623 5620 5619 5618 5615 5607 5605 5600 5597 5593 5591 5588 5585 5580 5576 5572 5567 5563 5558 5554 5549 5541 5538 5536 5533 5529 5528 5532
5651 5651 5651 5650 5650 5649 5648 5646 5643 5641 5639 5637 5633 5627 5621 5614 5608 5606 5606 5607 5601 5599 5594 5591 5587 5584 5579 5576 5572 5568 5564 5560 5554 5548 5541 5535 5528 5523 5520 5517 5518 5515 5517
5640 5639 5639 5639 5639 5639 5639 5638 5637 5635 5633 5630 5628 5624 5619 5612 5608 5597 5593 5591 5590 5591 5587 5583 5577 5572 5569 5565 5561 5558 5554 5548 5542 5537 5532 5524 5516 5511 5509 5505 5507 5506 5505
5631 5630 5630 5630 5629 5628 5628 5629 5629 5629 5627 5624 5620 5617 5613 5608 5603 5597 5592 5589 5583 5580 5578 5573 5566 5560 5556 5553 5550 5547 5541 5535 5530 5525 5520 5512 5505 5500 5498 5494 5496 5499 5499
5619 5618 5619 5619 5619 5620 5621 5622 5622 5621 5618 5616 5612 5609 5605 5599 5593 5588 5586 5582 5575 5569 5566 5566 5552 5550 5546 5543 5539 5536 5531 5525 5519 5514 5508 5501 5495 5493 5488 5485 5486 5485 5488
5609 5609 5608 5609 5610 5610 5611 5611 5610 5608 5605 5602 5599 5598 5594 5587 5583 5578 5575 5572 5569 5567 5560 5553 5547 5539 5534 5532 5529 5526 5521 5514 5508 5503 5498 5490 5482 5480 5478 5474 5476 5476 5474
5597 5597 5597 5598 5598 5597 5597 5598 5596 5594 5591 5587 5585 5582 5577 5573 5569 5565 5562 5559 5555 5553 5549 5542 5533 5526 5523 5521 5517 5515 5511 5506 5500 5494 5491 5485 5477 5473 5468 5462 5468 5467 5467
5584 5585 5584 5584 5584 5583 5583 5581 5580 5578 5575 5572 5569 5567 5563 5560 5555 5552 5548 5545 5541 5537 5536 5528 5520 5515 5513 5509 5508 5505 5501 5496 5491 5486 5482 5478 5472 5466 5462 5461 5462 5460 5462
5571 5571 5570 5570 5569 5568 5566 5566 5564 5560 5558 5555 5553 5551 5548 5545 5540 5537 5535 5531 5526 5521 5520 5517 5508 5506 5502 5499 5497 5496 5493 5487 5482 5477 5471 5469 5466 5462 5459 5458 5456 5454 5452
5558 5557 5555 5555 5554 5553 5552 5551 5548 5546 5542 5537 5536 5536 5531 5529 5525 5521 5519 5516 5512 5508 5505 5504 5500 5495 5493 5489 5488 5487 5483 5479 5475 5471 5467 5464 5462 5458 5455 5453 5451 5450 5447
5546 5545 5544 5541 5538 5538 5538 5538 5537 5533 5529 5525 5522 5520 5517 5515 5511 5509 5505 5501 5498 5497 5494 5494 5491 5488 5484 5479 5479 5478 5476 5470 5465 5462 5459 5457 5455 5453 5451 5448 5446 5442 5440
5535 5534 5533 5532 5529 5525 5523 5525 5526 5523 5517 5513 5508 5506 5504 5502 5500 5496 5493 5488 5487 5485 5485 5485 5483 5481 5478 5475 5469 5468 5466 5461 5456 5450 5449 5448 5446 5443 5441 5438 5436 5434 5432
5523 5524 5520 5521 5517 5518 5516 5514 5514 5510 5505 5500 5497 5493 5490 5488 5486 5484 5481 5480 5477 5476 5472 5471 5471 5470 5466 5462 5459 5457 5454 5452 5450 5439 5438 5440 5437 5436 5433 5430 5428 5425 5424
5510 5511 5509 5508 5507 5508 5506 5502 5500 5497 5491 5487 5485 5481 5478 5475 5473 5470 5469 5468 5467 5467 5465 5463 5462 5458 5456 5451 5447 5444 5441 5438 5436 5433 5428 5430 5426 5425 5423 5420 5416 5413 5411
5499 5499 5497 5497 5497 5498 5494 5491 5487 5482 5479 5476 5473 5470 5469 5467 5465 5461 5460 5459 5457 5456 5454 5452 5450 5448 5445 5441 5437 5434 5431 5427 5425 5422 5417 5417 5414 5414 5410 5406 5402 5399 5398
5487 5486 5485 5484 5486 5487 5484 5479 5478 5474 5470 5467 5465 5462 5461 5460 5457 5454 5453 5451 5449 5447 5444 5442 5440 5437 5434 5430 5428 5424 5422 5417 5416 5412 5405 5402 5402 5399 5396 5391 5386 5383 5382
5478 5476 5474 5476 5479 5475 5475 5473 5472 5468 5465 5462 5457 5454 5453 5452 5449 5447 5443 5442 5441 5439 5436 5433 5430 5427 5423 5420 5416 5412 5408 5405 5401 5399 5392 5388 5387 5382 5381 5376 5372 5369 5367